Location: Fishcreek Rd Observing Site
(41.1865°N, 81.4271°W)
Time: 01:52:59
(UTC-04:00)

Hubble Space Telescope - Visible Passes

Search period start: 21 October 2018 00:00
Search period end: 31 October 2018 00:00
Orbit: 537 x 541 km, 28.5° (Epoch: 20 October)

Date Brightness Start Highest point End Pass type
(mag) Time Alt. Az. Time Alt. Az. Time Alt. Az.
21 Oct 3.1 06:26:10 10° SSW 06:27:54 13° S 06:29:41 10° SSE visible
22 Oct 3.1 06:16:26 11° SSW 06:17:22 12° S 06:18:47 10° S visible
23 Oct 3.2 06:06:43 10° SSW 06:06:49 10° SSW 06:07:30 10° S visible
